Jamestown, ND

5:02 PM CDT on March 22, 2017 (GMT -0500)
Jamestown Municipal

Weather History for KJMS - May, 2014

Change the Weather History Date:

Monday, May 26, 2014

  Actual Average Record
Temperature  
Mean Temperature 67 °F 59 °F  
Max Temperature 78 °F 71 °F 101 °F (1934)
Min Temperature 56 °F 46 °F 29 °F (1961)
Degree Days  
Heating Degree Days 0 7  
Month to date heating degree days 354 290  
Since 1 July heating degree days 9674 8884  
Cooling Degree Days 2 1  
Month to date cooling degree days 15 15  
Year to date cooling degree days 15 17  
Growing Degree Days 16 (Base 50)    
Moisture  
Dew Point 58 °F    
Average Humidity 74    
Maximum Humidity 100    
Minimum Humidity 47    
Precipitation  
Precipitation 0.00 in 0.09 in 1.48 in (1932)
Month to date precipitation 4.16 2.18  
Year to date precipitation 7.22 5.07  
Sea Level Pressure  
Sea Level Pressure 29.94 in    
Wind  
Wind Speed 9 mph (ENE)    
Max Wind Speed 16 mph    
Max Gust Speed 22 mph    
Visibility 7 miles    
Events Fog    
T = Trace of Precipitation, MM = Missing Value Source: NWS Daily Summary

Daily Weather History Graph

Daily Weather History Graph

Search for Another Location

Airport or City:

Trip Planner

Search our weather history database for the weather conditions in past years. The results will help you decide how hot, cold, wet, or windy it might be!

Date:

Astronomy

May. 26, 2014 Rise Set
Actual Time 5:48 AM CDT 9:16 PM CDT
Civil Twilight 5:10 AM CDT 9:53 PM CDT
Nautical Twilight 4:20 AM CDT 10:43 PM CDT
Astronomical Twilight 3:15 AM CDT 11:49 PM CDT
Moon 4:41 AM CDT (5/26) 7:12 PM CDT (5/26)
Length of Visible Light 16h 43m
Length of Day
15h 27m
Waning Crescent, 5% of the Moon is Illuminated
May 26
Waning Crescent
May 28
New
Jun 5
First Quarter
Jun 12
Full
Jun 19
Last Quarter

Hourly Weather History & Observations

Time (CDT) Temp. Dew Point Humidity Pressure Visibility Wind Dir Wind Speed Gust Speed Precip Events Conditions
12:39 AM 61.0 °F 59.0 °F 93% 29.90 in 10.0 mi NE 4.6 mph - N/A   Partly Cloudy
12:56 AM 61.0 °F 57.9 °F 90% 29.89 in 10.0 mi NNE 5.8 mph - N/A   Mostly Cloudy
1:43 AM 64.0 °F 62.1 °F 93% 29.92 in 9.0 mi ENE 8.1 mph - N/A   Overcast
1:52 AM 64.4 °F 62.6 °F 94% 29.92 in 8.0 mi ENE 6.9 mph - N/A   Overcast
1:56 AM 64.0 °F 62.1 °F 93% 29.91 in 8.0 mi ENE 9.2 mph - N/A   Overcast
2:16 AM 64.0 °F 61.0 °F 90% 29.93 in 10.0 mi ENE 11.5 mph - N/A   Overcast
2:56 AM 63.0 °F 61.0 °F 93% 29.91 in 8.0 mi ENE 11.5 mph - N/A   Overcast
3:37 AM 62.1 °F 59.0 °F 90% 29.92 in 10.0 mi ENE 11.5 mph - N/A   Overcast
3:56 AM 61.0 °F 57.9 °F 90% 29.91 in 10.0 mi NE 10.4 mph - N/A   Overcast
4:18 AM 59.0 °F 57.9 °F 96% 29.92 in 9.0 mi NE 15.0 mph - N/A   Mostly Cloudy
4:28 AM 59.0 °F 57.9 °F 96% 29.92 in 6.0 mi NE 13.8 mph - N/A   Mostly Cloudy
4:56 AM 59.0 °F 57.9 °F 96% 29.93 in 3.0 mi NE 13.8 mph - N/A   Overcast
5:11 AM 59.0 °F 57.9 °F 96% 29.93 in 1.8 mi NE 11.5 mph - N/A   Overcast
5:31 AM 57.9 °F 57.9 °F 100% 29.93 in 0.5 mi NE 13.8 mph - N/A Fog Fog
5:56 AM 57.9 °F 57.9 °F 100% 29.94 in 1.0 mi ENE 12.7 mph - N/A   Mist
6:04 AM 57.9 °F 57.9 °F 100% 29.94 in 3.0 mi NE 12.7 mph - N/A   Overcast
6:12 AM 57.9 °F 57.9 °F 100% 29.94 in 1.8 mi ENE 11.5 mph - N/A   Overcast
6:40 AM 57.9 °F 57.9 °F 100% 29.96 in 0.5 mi NNE 10.4 mph - N/A Fog Fog
6:51 AM 57.2 °F 57.2 °F 100% 29.96 in 2.0 mi NE 11.5 mph - N/A   Overcast
6:56 AM 57.0 °F 57.0 °F 100% 29.96 in 2.0 mi NNE 12.7 mph - N/A   Overcast
7:11 AM 57.0 °F 57.0 °F 100% 29.97 in 3.0 mi NE 8.1 mph - N/A   Overcast
7:30 AM 57.0 °F 57.0 °F 100% 29.97 in 2.0 mi NE 9.2 mph - N/A   Overcast
7:54 AM 57.2 °F 55.4 °F 94% 29.97 in 4.0 mi NE 10.4 mph - N/A   Overcast
7:56 AM 57.0 °F 55.9 °F 96% 29.97 in 2.5 mi NNE 12.7 mph - N/A   Overcast
8:01 AM 55.9 °F 55.9 °F 100% 29.97 in 0.8 mi NNE 12.7 mph - N/A   Overcast
8:19 AM 55.9 °F 55.0 °F 97% 29.97 in 1.5 mi NNE 11.5 mph - N/A   Overcast
8:23 AM 55.9 °F 55.0 °F 97% 29.97 in 3.0 mi NNE 13.8 mph - N/A   Overcast
8:53 AM 57.2 °F 53.6 °F 88% 29.97 in 10.0 mi NNE 12.7 mph - N/A   Overcast
8:56 AM 57.9 °F 54.0 °F 87% 29.97 in 10.0 mi NE 11.5 mph - N/A   Overcast
9:17 AM 60.1 °F 55.0 °F 83% 29.97 in 10.0 mi NNE 10.4 mph - N/A   Scattered Clouds
10:56 AM 64.0 °F 57.0 °F 78% 29.98 in 10.0 mi ENE 11.5 mph - N/A   Scattered Clouds
11:56 AM 68.0 °F 60.1 °F 76% 29.98 in 10.0 mi NE 10.4 mph - N/A   Partly Cloudy
1:56 PM 73.0 °F 60.1 °F 64% 29.94 in 10.0 mi East 12.7 mph - N/A   Clear
2:56 PM 73.9 °F 59.0 °F 59% 29.92 in 10.0 mi East 10.4 mph 21.9 mph N/A   Clear
4:56 PM 75.9 °F 57.0 °F 52% 29.90 in 10.0 mi ESE 10.4 mph - N/A   Clear
5:56 PM 77.0 °F 55.0 °F 47% 29.89 in 10.0 mi ESE 4.6 mph - N/A   Clear
6:56 PM 77.0 °F 55.9 °F 48% 29.89 in 10.0 mi ESE 6.9 mph - N/A   Clear
7:56 PM 75.9 °F 55.9 °F 50% 29.90 in 10.0 mi SE 6.9 mph - N/A   Clear
8:56 PM 72.0 °F 59.0 °F 64% 29.91 in 10.0 mi ESE 5.8 mph - N/A   Clear
9:56 PM 69.1 °F 57.9 °F 68% 29.91 in 10.0 mi East 6.9 mph - N/A   Clear
10:56 PM 66.0 °F 59.0 °F 78% 29.92 in 10.0 mi East 5.8 mph - N/A   Clear
11:56 PM 64.9 °F 57.9 °F 78% 29.91 in 10.0 mi SE 5.8 mph - N/A   Clear